Fallon NAS, NV

12:27 AM PST on December 17, 2017 (GMT -0800)
Fallon Naval Air Station

Weather History for KNFL - June, 2013

Change the Weather History Date:

Friday, June 21, 2013

  Actual Average Record
Temperature  
Mean Temperature 62 °F -  
Max Temperature 79 °F 85 °F 102 °F (1959)
Min Temperature 46 °F 49 °F 37 °F (1960)
Degree Days  
Heating Degree Days 3    
Growing Degree Days 12 (Base 50)    
Moisture  
Dew Point 26 °F    
Average Humidity 25    
Maximum Humidity 62    
Minimum Humidity 10    
Precipitation  
Precipitation 0.00 in - - ()
Sea Level Pressure  
Sea Level Pressure 29.95 in    
Wind  
Wind Speed 4 mph (North)    
Max Wind Speed 14 mph    
Max Gust Speed 16 mph    
Visibility 10 miles    
Events      
Averages and records for this station are not official NWS values.
T = Trace of Precipitation, MM = Missing Value Source: NWS Daily Summary

Daily Weather History Graph

Daily Weather History Graph

Search for Another Location

Airport or City:

Trip Planner

Search our weather history database for the weather conditions in past years. The results will help you decide how hot, cold, wet, or windy it might be!

Date:

Astronomy

Jun. 21, 2013 Rise Set
Actual Time 5:28 AM PDT 8:25 PM PDT
Civil Twilight 4:55 AM PDT 8:57 PM PDT
Nautical Twilight 4:14 AM PDT 9:38 PM PDT
Astronomical Twilight 3:27 AM PDT 10:26 PM PDT
Moon 6:41 PM PDT (6/21) 3:47 AM PDT (6/21)
Length of Visible Light 16h 02m
Length of Day
14h 57m
Waxing Gibbous, 96% of the Moon is Illuminated
Jun 21
Waxing Gibbous
Jun 23
Full
Jun 29
Last Quarter
Jul 8
New
Jul 15
First Quarter

Hourly Weather History & Observations

Time (PDT) Temp. Dew Point Humidity Pressure Visibility Wind Dir Wind Speed Gust Speed Precip Events Conditions
6:19 AM 46.4 °F 33.8 °F 62% 30.10 in 10.0 mi Calm Calm - N/A   Partly Cloudy
6:56 AM 50.0 °F 33.1 °F 52% 30.01 in 10.0 mi Calm Calm - N/A   Partly Cloudy
7:56 AM 55.0 °F 34.0 °F 45% 30.01 in 10.0 mi Calm Calm - N/A   Scattered Clouds
8:56 AM 57.9 °F 33.1 °F 39% 30.00 in 10.0 mi Calm Calm - N/A   Scattered Clouds
9:56 AM 64.0 °F 32.0 °F 30% 29.99 in 10.0 mi Variable 3.5 mph - N/A   Scattered Clouds
10:56 AM 64.9 °F 30.9 °F 28% 29.98 in 10.0 mi Variable 3.5 mph - N/A   Scattered Clouds
11:56 AM 68.0 °F 30.9 °F 25% 29.97 in 10.0 mi West 10.4 mph - N/A   Scattered Clouds
12:56 PM 71.1 °F 28.9 °F 21% 29.96 in 10.0 mi Variable 3.5 mph - N/A   Scattered Clouds
1:56 PM 71.1 °F 26.1 °F 19% 29.95 in 10.0 mi Variable 4.6 mph - N/A   Scattered Clouds
2:56 PM 73.0 °F 25.0 °F 17% 29.93 in 10.0 mi ENE 5.8 mph - N/A   Scattered Clouds
3:56 PM 75.9 °F 23.0 °F 14% 29.91 in 10.0 mi NW 8.1 mph - N/A   Scattered Clouds
4:56 PM 77.0 °F 21.9 °F 13% 29.90 in 10.0 mi NNE 11.5 mph 16.1 mph N/A   Partly Cloudy
5:56 PM 78.1 °F 19.9 °F 11% 29.88 in 10.0 mi North 13.8 mph - 0.00 in   Partly Cloudy
6:56 PM 77.0 °F 17.1 °F 10% 29.88 in 10.0 mi NNE 13.8 mph - N/A   Partly Cloudy
7:56 PM 73.9 °F 19.9 °F 13% 29.88 in 10.0 mi North 11.5 mph - N/A   Partly Cloudy
8:56 PM 68.0 °F 21.0 °F 17% 29.90 in 10.0 mi North 6.9 mph - N/A   Partly Cloudy
9:56 PM 62.1 °F 19.0 °F 19% 29.92 in 10.0 mi North 5.8 mph - N/A   Partly Cloudy
10:56 PM 57.9 °F 19.9 °F 23% 29.93 in 10.0 mi Calm Calm - N/A   Clear
11:56 PM 57.9 °F 19.9 °F 23% 29.94 in 10.0 mi Calm Calm - N/A   Clear